Location: Tel Aviv
(32.0670°N, 34.7670°E)
Time: 04:54:50
(UTC+03:00)

Altair - Visible Passes

Search period start: 18 August 2022 00:00
Search period end: 28 August 2022 00:00
Orbit: 1502 x 1682 km, 47.2° (Epoch: 16 August)

Date Brightness Start Highest point End Pass type
(mag) Time Alt. Az. Time Alt. Az. Time Alt. Az.
18 Aug 8.9 01:23:09 10° WNW 01:25:56 22° WNW 01:25:56 22° WNW visible
18 Aug 8.8 20:46:39 10° WNW 20:55:06 32° N 21:03:17 10° ENE visible
18 Aug 8.1 22:53:00 10° NW 23:02:03 45° NNE 23:03:32 42° NE visible
19 Aug 8.8 00:57:55 10° NW 01:01:30 27° WNW 01:01:30 27° WNW visible
19 Aug 8.9 20:21:13 10° WNW 20:29:43 32° N 20:37:57 10° ENE visible
19 Aug 8.2 22:27:46 10° NW 22:36:45 43° NNE 22:39:11 37° NE visible
20 Aug 8.5 00:32:41 10° NW 00:37:08 32° WNW 00:37:08 32° WNW visible
20 Aug 8.9 19:55:46 10° WNW 20:04:20 33° N 20:12:39 10° NE visible
20 Aug 8.3 22:02:30 10° NW 22:11:26 41° NNE 22:14:51 31° ENE visible
21 Aug 8.3 00:07:27 10° NW 00:12:49 39° WNW 00:12:49 39° WNW visible
21 Aug 8.9 19:30:18 10° WNW 19:38:57 33° N 19:47:21 10° NE visible
21 Aug 8.3 21:37:14 10° NW 21:46:07 39° NNE 21:50:35 26° ENE visible
21 Aug 8.0 23:42:14 10° NW 23:48:34 48° NW 23:48:34 48° NW visible
22 Aug 8.4 21:11:57 10° NW 21:20:47 38° NNE 21:26:22 21° ENE visible
22 Aug 7.8 23:17:01 10° NW 23:24:21 59° NW 23:24:21 59° NW visible
23 Aug 8.5 20:46:38 10° NW 20:55:26 37° NNE 21:02:11 16° ENE visible
23 Aug 7.5 22:51:47 10° NW 23:00:10 70° NNW 23:00:10 70° NNW visible
24 Aug 9.5 00:57:42 10° WNW 00:58:10 11° WNW 00:58:10 11° WNW visible
24 Aug 8.5 20:21:19 10° NW 20:30:05 36° NNE 20:38:03 12° ENE visible
24 Aug 7.4 22:26:34 10° NW 22:36:02 74° NNE 22:36:02 74° NNE visible
25 Aug 9.3 00:32:15 10° WNW 00:34:02 16° WNW 00:34:02 16° WNW visible
25 Aug 8.6 19:55:59 10° NW 20:04:43 35° N 20:13:09 10° ENE visible
25 Aug 7.4 22:01:21 10° NW 22:10:57 70° NE 22:11:56 65° ENE visible
26 Aug 9.0 00:06:52 10° WNW 00:09:56 21° W 00:09:56 21° W visible
26 Aug 8.6 19:30:38 10° NW 19:39:20 34° N 19:47:46 10° ENE visible
26 Aug 7.5 21:36:08 10° NW 21:45:44 65° NNE 21:47:53 53° E visible
26 Aug 8.7 23:41:30 10° WNW 23:45:53 27° W 23:45:53 27° W visible
27 Aug 7.7 21:10:54 10° NW 21:20:29 61° NNE 21:23:53 41° E visible
27 Aug 8.4 23:16:10 10° WNW 23:21:53 35° W 23:21:53 35° W visible
